Regional Weather Roundup
Issued by NWS Lake Charles, LA

Home | Current Version | Previous Version | Text Only | Print | Product List | Glossary On
Versions: 1 2 3 4 5 6 7 8 9 10 11 12 13 14 15 16 17 18 19 20 21 22 23 24 25 26 27 28 29 30 31 32 33 34 35 36 37 38 39 40 41 42 43 44 45 46 47 48
000
ASUS44 KLCH 271010
RWRLCH
RWRLCH
REGIONAL WEATHER ROUNDUP
NATIONAL WEATHER SERVICE LAKE CHARLES LA
500 AM CDT WED MAY 27 2015

Note: "fair" indicates few or no clouds below 12,000 feet with no
significant weather and/or obstructions to visibility.


ACROSS SOUTHEAST TEXAS

CITY           SKY/WX    TMP DP  RH WIND       PRES   REMARKS
BEAUMONT       CLOUDY    77  75  93 S3        30.02R
BEAUMONT CITY  CLOUDY    75  74  97 CALM      30.03R
ORANGE         CLOUDY    77  74  92 CALM      30.03R
JASPER         NOT AVBL
$$

ACROSS CENTRAL LOUISIANA

CITY           SKY/WX    TMP DP  RH WIND       PRES   REMARKS
LEESVILLE      CLOUDY    74  71  92 SE6       30.02R
FULLERTON      CLOUDY    74  70  87 CALM      30.02F
ALEXANDRIA INT MOCLDY    71  70  96 E3        30.03F
ESLER FIELD    MOCLDY    67  67 100 CALM      30.05F
DERIDDER       PTSUNNY   73  72  95 CALM      30.06R
OAKDALE        MOSUNNY   71  69  95 CALM      30.03S FOG
OPELOUSAS        N/A     71  71  98 CALM      30.04F
$$

ACROSS SOUTHWEST AND SOUTH CENTRAL LOUISIANA

CITY           SKY/WX    TMP DP  RH WIND       PRES   REMARKS
SULPHUR        MOSUNNY   74  74  98 CALM      30.03R
LAKE CHARLES   PTCLDY    74  72  93 E3        30.01F
CHENNAULT INT  PTCLDY    73  72  98 CALM      30.02F
CAMERON PHI    SUNNY     79  77  94 S16       30.02F
DEQUINCY       PTSUNNY   73  73 100 CALM      30.03R
JENNINGS         N/A     73  73  98 SE5       30.01F
LAFAYETTE      MOCLDY    74  72  93 E3        30.04F
NEW IBERIA     PTCLDY    73  72  96 SE6       30.05F
ABBEVILLE        N/A     73  73  99 CALM      30.04F
PATTERSON      CLEAR     73  70  88 E3        30.07F
SALT POINT       N/A     74  73  97 CALM      30.04F
$$

SELECTED SITES ACROSS THE REGION

CITY           SKY/WX    TMP DP  RH WIND       PRES   REMARKS
HOUSTON BUSH   CLOUDY    78  75  90 NE6       30.04R
HOUSTON HOBBY  CLOUDY    79  75  89 CALM      30.03R
GALVESTON      CLOUDY    79  78  97 S13       30.00F
COLLEGE STAT   CLOUDY    66  64  93 NE10      30.03R
CONROE         TSTM      65  62  90 VRB6G30   30.10R VSB 1
HUNTSVILLE     TSTM      65  64  97 E5        30.04F
LUFKIN         TSTM      67  62  84 NE9       30.06F
SHREVEPORT     TSTM      67  64  90 W13       30.09R FOG
MONROE         CLOUDY    72  68  87 CALM      30.07F
NATCHEZ MS     CLOUDY    72  68  88 SE6       30.08S
BATON ROUGE    PTCLDY    71  70  96 CALM      30.07S
N.O. INTL ARPT PTCLDY    76  73  91 SE5       30.08F
SLIDELL        MOCLDY    72  72 100 SE5       30.08
$$

MARINE REPORTS

STATION/POSITION TIME  TEMP    WIND        PRES    VSBY  WAVE
                       AIR SEA DIR/SP/G                  HT/PER
                 (UTC) (F)     (DEG/KT/KT) (MB)    (MI)  (FT/S)
BUOY 30 S HIGH I 0950   80 80  150/ 14/ 16 1015.0F         4/ 7
SEA RIM ST PARK  1000   79     170/  9/ 11 1016.6F
PORT ARTHUR      0900      76  180/  2/  5 1016.7F
SABINE PASS N    0900   79 78  180/  7/ 11 1016.8F
TEXAS POINT      NOT AVBL
CALCASIEU PASS   0900   79 80  190/ 11/ 15   N/A
LK CHARLES BEACH 0900   75 77              1017.3F
MARSH ISLAND     0900   81     180/  8/ 11   N/A           0
FRESH WATER LOCK 0900   79 81  160/  7/  9 1017.2F
AMERADA PASS     0900   77 77  110/  1/  2 1017.7F
$$



USA.gov is the U.S. government's official web portal to all federal, state and local government web resources and services.